Content
SEND FEEDBACK

Daily
Averages
Monthly
Summary
Turkey

ELAZIG, TURKEY


Home > Middle East > Turkey
Elevation: 2893 feet     Latitude: 38 36N     Longitude: 039 17E

WEATHER
 
SELECT A DAY
Number of Records: 90,501;   Date Range: 7/1/96 - 7/23/14
 
SHARE

PRINT THIS DATA

[ ← Previous Day ]
WEATHER ALMANAC - MARCH 12, 2013
[ Next Day → ]
[ °C ]   °F
Weather ElementAverageHighLow
Temperature53.5 °F64.4 °F (2:50 pm)39.2 °F (5:50 am)
Dewpoint41.5 °F46.4 °F (8:50 pm)33.8 °F (1:50 am)
Humidity64.2 %87 % (4:50 am)37 % (2:00 pm)
Barometer29.93 in29.95 in (6:50 am)29.88 in (2:00 pm)
Wind Speed7.3 mph16.1 mph (5:50 pm)
Weather ElementAverage
Visibility6.8 mi
Wind DirectionSSE (144.7 °)

Weather ElementTotal
Precipitation---
Heating Degree Days13.2 (Base 65)
Growing Degree Days1.8 (Base 50)
Averaged from 30 records on March 12, 2013
WEATHER CONDITIONS BREAKOUT
WIND DIRECTION BREAKOUT
WEATHER BY HOUR - MARCH 12, 2013
[ °C ]   °F
Local TimeTemperatureDewpointHumidityBarometerVisibilityWind DirectionWind SpeedGust SpeedPrecipitationEventsConditions
1:50 AM41.0 °F33.8 °F76 %29.92 in6.2 miWest (260°)6.9 mphScattered Clouds
2:00 AM42.0 °F35.0 °F66 %29.90 in12.0 miWest (260°)6.9 mphScattered Clouds
2:50 AM42.8 °F35.6 °F76 %29.92 in6.2 miWNW (290°)4.6 mphScattered Clouds
3:50 AM41.0 °F35.6 °F81 %29.92 in6.2 miCalmScattered Clouds
4:50 AM41.0 °F37.4 °F87 %29.92 in6.2 miNNW (330°)5.8 mphScattered Clouds
5:50 AM39.2 °F35.6 °F87 %29.92 in6.2 miSW (220°)4.6 mphMostly Cloudy
6:50 AM42.8 °F39.2 °F87 %29.95 in6.2 miWSW (250°)4.6 mphMostly Cloudy
7:50 AM50.0 °F41.0 °F71 %29.95 in6.2 miENE (60°)3.5 mphMostly Cloudy
8:00 AM51.0 °F42.0 °F62 %29.94 in12.0 miENE (60°)3.5 mphPartly Cloudy
8:50 AM55.4 °F41.0 °F58 %29.95 in6.2 miNE (50°)6.9 mphMostly Cloudy
9:50 AM59.0 °F41.0 °F51 %29.95 in6.2 miVariable3.5 mphMostly Cloudy
10:50 AM59.0 °F41.0 °F51 %29.95 in6.2 miENE (70°)5.8 mphMostly Cloudy
11:50 AM62.6 °F42.8 °F48 %29.92 in6.2 miENE (60°)6.9 mphMostly Cloudy
12:50 PM60.8 °F42.8 °F52 %29.92 in6.2 miESE (110°)12.7 mphMostly Cloudy
1:50 PM62.6 °F42.8 °F48 %29.89 in6.2 miEast (100°)13.8 mphMostly Cloudy
2:00 PM62.0 °F42.0 °F37 %29.88 in6.0 miEast (100°)13.8 mphPartly Cloudy
2:50 PM64.4 °F41.0 °F42 %29.92 in6.2 miSouth (170°)9.2 mphMostly Cloudy
3:50 PM60.8 °F41.0 °F48 %29.92 in6.2 miSouth (170°)9.2 mphMostly Cloudy
4:50 PM59.0 °F41.0 °F51 %29.95 in6.2 miSSW (210°)9.2 mphMostly Cloudy
5:50 PM57.2 °F42.8 °F59 %29.95 in6.2 miSW (220°)16.1 mphMostly Cloudy
6:05 PM57.2 °F42.8 °F59 %29.95 in6.2 miSW (220°)15.0 mphRainLight Rain
6:50 PM53.6 °F44.6 °F72 %29.95 in6.2 miWest (260°)5.8 mphMostly Cloudy
7:50 PM53.6 °F44.6 °F72 %29.95 in6.2 miNE (40°)3.5 mphMostly Cloudy
8:00 PM53.0 °F45.0 °F66 %29.92 in12.0 miNE (40°)3.5 mphPartly Cloudy
8:50 PM53.6 °F46.4 °F77 %29.95 in6.2 miNNE (30°)5.8 mphMostly Cloudy
9:07 PM55.4 °F46.4 °F72 %29.95 in6.2 miNorth (350°)6.9 mphRainLight Rain Showers
9:35 PM55.4 °F46.4 °F72 %29.95 in6.2 miENE (60°)4.6 mphMostly Cloudy
9:50 PM55.4 °F46.4 °F72 %29.95 in6.2 miENE (70°)5.8 mphMostly Cloudy
10:50 PM57.2 °F44.6 °F63 %29.92 in6.2 miSE (140°)10.4 mphMostly Cloudy
11:50 PM57.2 °F44.6 °F63 %29.92 in6.2 miSE (140°)10.4 mphMostly Cloudy
Hourly data recorded from LTCA, located miles away from Elazig, Turkey







STORIES FROM OUR PARTNERS